SAS777 KCOS-KMCI

Flight info

Callsign SAS777
Flight time N/A
Altitude 34000
Route DCT BRK DCT JEWLS DCT GLD DCT KD60A DCT DPEAK JSONN4
Aircraft A339/M-V/N

Departure

Time 2026-04-21 02:40
Airport City of Colorado Springs Municipal Airport (KCOS)

Arrival

Time N/A
Airport Kansas City International Airport (KMCI)
Time Latitude Longitude Altitude Speed Heading
2026-04-21 02:01 38.79933 -104.70011 6200 ft 0 kts 269°
2026-04-21 02:24 38.79933 -104.70009 6199 ft 2 kts 269°
2026-04-21 02:24 38.79934 -104.69979 6198 ft 4 kts 286°
2026-04-21 02:24 38.79926 -104.69950 6196 ft 4 kts 320°
2026-04-21 02:25 38.79910 -104.69934 6197 ft 2 kts 359°
2026-04-21 02:25 38.79908 -104.69934 6197 ft 0 kts 360°
2026-04-21 02:28 38.79913 -104.69934 6196 ft 3 kts
2026-04-21 02:28 38.79948 -104.69934 6197 ft 7 kts
2026-04-21 02:29 38.80001 -104.69934 6199 ft 9 kts
2026-04-21 02:29 38.80067 -104.69912 6198 ft 11 kts 22°
2026-04-21 02:29 38.80078 -104.69903 6199 ft 1 kts 33°
2026-04-21 02:29 38.80079 -104.69893 6198 ft 1 kts 62°
2026-04-21 02:30 38.80078 -104.69880 6200 ft 2 kts 82°
2026-04-21 02:30 38.80076 -104.69850 6199 ft 4 kts 93°
2026-04-21 02:30 38.80075 -104.69800 6200 ft 7 kts 90°
2026-04-21 02:30 38.80097 -104.69746 6198 ft 7 kts 45°
2026-04-21 02:31 38.80143 -104.69729 6198 ft 8 kts 10°
2026-04-21 02:31 38.80205 -104.69724 6198 ft 10 kts
2026-04-21 02:31 38.80262 -104.69679 6199 ft 8 kts 60°
2026-04-21 02:31 38.80277 -104.69597 6200 ft 10 kts 79°
2026-04-21 02:32 38.80282 -104.69564 6200 ft 1 kts 83°
2026-04-21 02:32 38.80281 -104.69549 6200 ft 3 kts 90°
2026-04-21 02:32 38.80281 -104.69508 6200 ft 6 kts 90°
2026-04-21 02:32 38.80281 -104.69445 6200 ft 8 kts 90°
2026-04-21 02:33 38.80281 -104.69361 6200 ft 11 kts 90°
2026-04-21 02:33 38.80281 -104.69258 6200 ft 13 kts 90°
2026-04-21 02:33 38.80281 -104.69139 6200 ft 14 kts 90°
2026-04-21 02:33 38.80281 -104.69003 6200 ft 16 kts 90°
2026-04-21 02:34 38.80272 -104.68854 6198 ft 17 kts 102°
2026-04-21 02:34 38.80216 -104.68794 6199 ft 10 kts 165°
2026-04-21 02:34 38.80142 -104.68783 6199 ft 12 kts 175°
2026-04-21 02:34 38.80049 -104.68787 6199 ft 15 kts 182°
2026-04-21 02:35 38.79941 -104.68788 6199 ft 17 kts 178°
2026-04-21 02:35 38.79818 -104.68786 6199 ft 19 kts 181°
2026-04-21 02:35 38.79676 -104.68791 6198 ft 21 kts 181°
2026-04-21 02:35 38.79525 -104.68787 6199 ft 23 kts 179°
2026-04-21 02:36 38.79361 -104.68789 6198 ft 24 kts 181°
2026-04-21 02:36 38.79185 -104.68792 6198 ft 26 kts 180°
2026-04-21 02:36 38.79000 -104.68794 6198 ft 27 kts 180°
2026-04-21 02:36 38.78811 -104.68792 6199 ft 28 kts 179°
2026-04-21 02:37 38.78669 -104.68788 6199 ft 0 kts 178°
2026-04-21 02:37 38.78657 -104.68787 6198 ft 4 kts 178°
2026-04-21 02:37 38.78619 -104.68786 6199 ft 7 kts 178°
2026-04-21 02:37 38.78519 -104.68784 6199 ft 22 kts 182°
2026-04-21 02:38 38.78358 -104.68789 6199 ft 24 kts 179°
2026-04-21 02:38 38.78189 -104.68791 6199 ft 25 kts 180°
2026-04-21 02:38 38.78014 -104.68791 6199 ft 24 kts 180°
2026-04-21 02:38 38.77912 -104.68719 6199 ft 13 kts 111°
2026-04-21 02:39 38.77933 -104.68613 6197 ft 13 kts 59°
2026-04-21 02:39 38.77972 -104.68586 6197 ft 0 kts 360°
2026-04-21 02:39 38.78044 -104.68586 6197 ft 38 kts 360°
2026-04-21 02:39 38.78545 -104.68582 6201 ft 105 kts 360°
2026-04-21 02:40 38.79473 -104.68585 6197 ft 156 kts
2026-04-21 02:40 38.80639 -104.68569 6476 ft 173 kts
2026-04-21 02:40 38.81936 -104.68485 6803 ft 195 kts
2026-04-21 02:40 38.83209 -104.68341 7240 ft 204 kts 11°
2026-04-21 02:41 38.84621 -104.67881 7619 ft 211 kts 18°